Location: Newark
(13.2833°S, 176.1833°W)
Time: 13:07:45
(UTC+00:00)

Hubble Space Telescope - Pass Details

Date: 17 November 2019
Orbit: 536 x 540 km, 28.5° (Epoch: 06 December)

Event Time Altitude Azimuth Distance (km) Brightness Sun altitude
Exits shadow 15:53:31 25° 345° (NNW) 1,108 2.0 -17.5°
Maximum altitude 15:55:10 35° 30° (NNE) 875 1.8 -17.1°
Drops below altitude 10° 15:58:57 10° 96° (E) 1,785 4.6 -16.3°
Sets 16:01:21 0° 105° (ESE) 2,678 6.1 -15.7°
